TimeCDT,TemperatureF,Dew PointF,Humidity,Sea Level PressureIn,VisibilityMPH,Wind Direction,Wind SpeedMPH,Gust SpeedMPH,PrecipitationIn,Events,Conditions,WindDirDegrees,DateUTC
12:15 AM,71.1,64.6,80,30.16,10.0,SSW,8.1,-,N/A,,Clear,200,2013-07-23 05:15:00
12:35 AM,71.1,64.6,80,30.17,10.0,South,8.1,-,N/A,,Clear,190,2013-07-23 05:35:00
12:55 AM,70.7,64.6,81,30.17,10.0,SSW,6.9,-,N/A,,Clear,200,2013-07-23 05:55:00
1:15 AM,70.3,64.4,81,30.17,10.0,South,6.9,-,N/A,,Clear,190,2013-07-23 06:15:00
1:35 AM,70.2,64.4,82,30.17,10.0,South,3.5,-,N/A,,Clear,170,2013-07-23 06:35:00
1:55 AM,69.3,64.4,84,30.17,10.0,Calm,Calm,-,N/A,,Clear,0,2013-07-23 06:55:00
2:15 AM,68.9,64.6,86,30.16,10.0,SW,3.5,-,N/A,,Clear,220,2013-07-23 07:15:00
2:35 AM,69.8,64.8,84,30.16,10.0,SSW,8.1,-,N/A,,Clear,200,2013-07-23 07:35:00
2:55 AM,69.3,64.4,84,30.15,10.0,SW,6.9,-,N/A,,Clear,220,2013-07-23 07:55:00
3:15 AM,70.0,64.0,81,30.15,10.0,Calm,Calm,-,N/A,,Clear,0,2013-07-23 08:15:00
3:35 AM,69.8,63.9,81,30.15,10.0,SW,8.1,-,N/A,,Scattered Clouds,220,2013-07-23 08:35:00
3:55 AM,69.8,63.7,81,30.15,10.0,SSW,6.9,-,N/A,,Mostly Cloudy,200,2013-07-23 08:55:00
4:15 AM,69.3,63.5,82,30.15,10.0,South,4.6,-,N/A,,Mostly Cloudy,190,2013-07-23 09:15:00
4:35 AM,69.1,63.5,82,30.16,10.0,SSW,6.9,-,N/A,,Scattered Clouds,210,2013-07-23 09:35:00
4:55 AM,68.5,63.1,83,30.16,10.0,SSW,6.9,-,N/A,,Clear,210,2013-07-23 09:55:00
5:15 AM,68.2,63.5,85,30.15,10.0,WSW,3.5,-,N/A,,Clear,250,2013-07-23 10:15:00
5:35 AM,68.0,63.7,86,30.16,10.0,Calm,Calm,-,N/A,,Scattered Clouds,0,2013-07-23 10:35:00
5:55 AM,68.5,63.9,85,30.16,10.0,Calm,Calm,-,N/A,,Overcast,0,2013-07-23 10:55:00
6:15 AM,68.4,64.0,86,30.15,10.0,West,3.5,-,N/A,,Mostly Cloudy,280,2013-07-23 11:15:00
6:35 AM,68.9,63.9,84,30.16,10.0,West,3.5,-,N/A,,Mostly Cloudy,280,2013-07-23 11:35:00
6:55 AM,68.0,63.9,87,30.16,10.0,WSW,3.5,-,N/A,,Mostly Cloudy,250,2013-07-23 11:55:00
7:15 AM,68.2,63.5,85,30.16,10.0,SW,3.5,-,N/A,,Scattered Clouds,230,2013-07-23 12:15:00
7:35 AM,68.2,63.5,85,30.17,10.0,West,5.8,-,N/A,,Clear,260,2013-07-23 12:35:00
7:55 AM,69.1,63.5,82,30.17,10.0,West,4.6,-,N/A,,Clear,260,2013-07-23 12:55:00
8:15 AM,70.3,63.7,79,30.17,10.0,SW,5.8,-,N/A,,Clear,230,2013-07-23 13:15:00
8:35 AM,71.6,63.1,75,30.17,10.0,SW,9.2,-,N/A,,Clear,220,2013-07-23 13:35:00
8:55 AM,73.8,63.3,70,30.17,10.0,SW,9.2,-,N/A,,Clear,220,2013-07-23 13:55:00
9:15 AM,74.8,63.3,67,30.17,10.0,SW,8.1,-,N/A,,Clear,230,2013-07-23 14:15:00
9:35 AM,75.9,63.1,64,30.17,10.0,SW,9.2,-,N/A,,Clear,230,2013-07-23 14:35:00
9:55 AM,77.0,63.1,62,30.18,10.0,SW,9.2,-,N/A,,Clear,220,2013-07-23 14:55:00
10:15 AM,77.7,62.6,60,30.18,10.0,SSW,9.2,-,N/A,,Clear,210,2013-07-23 15:15:00
10:35 AM,78.3,62.8,59,30.17,10.0,WSW,8.1,11.5,N/A,,Clear,240,2013-07-23 15:35:00
10:55 AM,79.2,62.8,57,30.17,10.0,WSW,11.5,-,N/A,,Clear,240,2013-07-23 15:55:00
11:15 AM,80.6,63.3,55,30.17,10.0,SW,9.2,-,N/A,,Clear,230,2013-07-23 16:15:00
11:35 AM,80.6,62.6,54,30.18,10.0,WSW,11.5,-,N/A,,Clear,250,2013-07-23 16:35:00
11:55 AM,81.1,61.7,51,30.17,10.0,WSW,10.4,-,N/A,,Clear,250,2013-07-23 16:55:00
12:15 PM,82.4,60.3,47,30.17,10.0,WSW,12.7,17.3,N/A,,Scattered Clouds,240,2013-07-23 17:15:00
12:35 PM,83.5,61.2,47,30.17,10.0,SSW,9.2,-,N/A,,Scattered Clouds,200,2013-07-23 17:35:00
12:55 PM,83.5,60.3,45,30.17,10.0,SW,10.4,17.3,N/A,,Scattered Clouds,230,2013-07-23 17:55:00
1:35 PM,85.8,59.9,41,30.16,10.0,SW,10.4,19.6,N/A,,Scattered Clouds,220,2013-07-23 18:35:00
1:55 PM,84.6,59.7,43,30.16,10.0,SW,15.0,-,N/A,,Scattered Clouds,230,2013-07-23 18:55:00
2:35 PM,88.2,59.4,38,30.15,10.0,SW,10.4,16.1,N/A,,Scattered Clouds,220,2013-07-23 19:35:00
3:15 PM,88.2,58.3,36,30.13,10.0,SW,12.7,19.6,N/A,,Scattered Clouds,220,2013-07-23 20:15:00
3:35 PM,88.3,58.1,36,30.13,10.0,SSW,9.2,19.6,N/A,,Mostly Cloudy,210,2013-07-23 20:35:00
3:55 PM,89.1,57.9,35,30.12,10.0,SW,10.4,-,N/A,,Mostly Cloudy,220,2013-07-23 20:55:00
4:15 PM,88.9,58.5,36,30.12,10.0,SE,12.7,17.3,N/A,,Mostly Cloudy,140,2013-07-23 21:15:00
4:55 PM,87.1,58.5,38,30.11,10.0,SSE,9.2,-,N/A,,Scattered Clouds,160,2013-07-23 21:55:00
5:55 PM,86.5,58.5,38,30.09,10.0,SSE,10.4,-,N/A,,Overcast,160,2013-07-23 22:55:00
6:15 PM,85.8,58.1,39,30.09,10.0,South,9.2,-,N/A,,Scattered Clouds,190,2013-07-23 23:15:00
6:35 PM,85.8,58.1,39,30.09,10.0,SSW,10.4,-,N/A,,Clear,200,2013-07-23 23:35:00
6:55 PM,86.5,58.5,38,30.09,10.0,South,10.4,-,N/A,,Clear,190,2013-07-23 23:55:00
7:35 PM,86.4,57.7,38,30.08,10.0,SSW,9.2,-,N/A,,Clear,200,2013-07-24 00:35:00
7:55 PM,85.1,57.2,39,30.09,10.0,South,9.2,-,N/A,,Clear,190,2013-07-24 00:55:00
8:15 PM,83.7,57.2,40,30.09,10.0,SSW,10.4,-,N/A,,Scattered Clouds,200,2013-07-24 01:15:00
8:35 PM,81.9,61.9,51,30.10,10.0,SSE,10.4,18.4,N/A,,Scattered Clouds,150,2013-07-24 01:35:00
8:55 PM,80.4,62.1,53,30.11,10.0,SSE,10.4,-,N/A,,Clear,160,2013-07-24 01:55:00
9:15 PM,79.5,64.4,60,30.12,10.0,SSE,6.9,-,N/A,,Clear,160,2013-07-24 02:15:00
9:35 PM,78.6,64.6,62,30.12,10.0,SSE,5.8,-,N/A,,Clear,160,2013-07-24 02:35:00
9:55 PM,78.1,64.0,62,30.13,10.0,South,6.9,-,N/A,,Clear,180,2013-07-24 02:55:00
10:15 PM,76.5,63.9,65,30.13,10.0,South,5.8,-,N/A,,Clear,190,2013-07-24 03:15:00
10:35 PM,76.3,63.5,64,30.14,10.0,SSW,8.1,-,N/A,,Clear,200,2013-07-24 03:35:00
10:55 PM,75.9,62.8,64,30.15,10.0,South,9.2,-,N/A,,Clear,190,2013-07-24 03:55:00
11:15 PM,76.3,62.2,62,30.15,10.0,South,11.5,-,N/A,,Clear,170,2013-07-24 04:15:00
11:35 PM,75.7,62.1,62,30.16,10.0,South,10.4,-,N/A,,Scattered Clouds,180,2013-07-24 04:35:00
11:55 PM,75.2,62.1,64,30.16,10.0,South,11.5,-,N/A,,Clear,180,2013-07-24 04:55:00